GLG1790 SEQM-SEGS

Flight info

Callsign GLG1790
Flight time 1h 45m
Altitude 36000
Route MIDEX4B MIDEX UW21 GLV
Aircraft A320/M-SDE3FGHIRWY/LB1

Departure

Time 2026-04-25 16:21
Airport Mariscal Sucre International Airport (SEQM)

Arrival

Time 2026-04-25 18:07
Airport Seymour Galapagos Ecological Airport (SEGS)
Time Latitude Longitude Altitude Speed Heading
2026-04-25 15:52 -0.12489 -78.35938 7841 ft 0 kts 268°
2026-04-25 16:11 -0.12489 -78.35925 7832 ft 4 kts 267°
2026-04-25 16:11 -0.12487 -78.35898 7834 ft 4 kts 264°
2026-04-25 16:11 -0.12483 -78.35871 7832 ft 4 kts 257°
2026-04-25 16:12 -0.12475 -78.35847 7832 ft 4 kts 227°
2026-04-25 16:12 -0.12462 -78.35838 7832 ft 0 kts 178°
2026-04-25 16:15 -0.12465 -78.35838 7832 ft 1 kts 178°
2026-04-25 16:15 -0.12512 -78.35836 7838 ft 10 kts 178°
2026-04-25 16:15 -0.12583 -78.35834 7841 ft 12 kts 178°
2026-04-25 16:16 -0.12682 -78.35826 7839 ft 12 kts 155°
2026-04-25 16:16 -0.12695 -78.35748 7842 ft 14 kts 88°
2026-04-25 16:16 -0.12691 -78.35648 7837 ft 16 kts 88°
2026-04-25 16:16 -0.12743 -78.35600 7845 ft 12 kts 176°
2026-04-25 16:17 -0.12882 -78.35593 7847 ft 24 kts 177°
2026-04-25 16:17 -0.13040 -78.35586 7852 ft 22 kts 178°
2026-04-25 16:17 -0.13178 -78.35583 7862 ft 18 kts 178°
2026-04-25 16:17 -0.13306 -78.35577 7868 ft 18 kts 177°
2026-04-25 16:18 -0.13419 -78.35572 7873 ft 15 kts 178°
2026-04-25 16:18 -0.13452 -78.35571 7875 ft 13 kts 178°
2026-04-25 16:18 -0.13608 -78.35564 7886 ft 17 kts 178°
2026-04-25 16:18 -0.13722 -78.35560 7892 ft 20 kts 176°
2026-04-25 16:19 -0.13884 -78.35553 7896 ft 24 kts 178°
2026-04-25 16:19 -0.14040 -78.35546 7905 ft 21 kts 176°
2026-04-25 16:19 -0.14170 -78.35540 7914 ft 17 kts 179°
2026-04-25 16:20 -0.14252 -78.35481 7916 ft 0 kts 99°
2026-04-25 16:20 -0.14253 -78.35473 7914 ft 5 kts 96°
2026-04-25 16:20 -0.14148 -78.35375 7907 ft 19 kts 356°
2026-04-25 16:21 -0.13822 -78.35386 7897 ft 82 kts 357°
2026-04-25 16:21 -0.13036 -78.35419 7875 ft 143 kts 357°
2026-04-25 16:21 -0.11855 -78.35465 7837 ft 193 kts 358°
2026-04-25 16:21 -0.10507 -78.35519 8499 ft 193 kts 356°
2026-04-25 16:22 -0.09160 -78.35599 9411 ft 195 kts 355°
2026-04-25 16:22 -0.07813 -78.35689 9929 ft 192 kts 355°
2026-04-25 16:22 -0.06484 -78.35778 10376 ft 191 kts 355°
2026-04-25 16:22 -0.05205 -78.36061 10758 ft 191 kts 326°
2026-04-25 16:23 -0.04335 -78.37040 11039 ft 194 kts 290°
2026-04-25 16:23 -0.04165 -78.38404 11240 ft 206 kts 269°
2026-04-25 16:23 -0.04187 -78.39882 11429 ft 220 kts 269°
2026-04-25 16:23 -0.04213 -78.41445 11716 ft 229 kts 269°
2026-04-25 16:24 -0.04244 -78.43028 12217 ft 227 kts 268°
2026-04-25 16:24 -0.04278 -78.44604 12719 ft 225 kts 269°
2026-04-25 16:24 -0.04307 -78.46163 13236 ft 223 kts 268°
2026-04-25 16:24 -0.04335 -78.47724 13600 ft 229 kts 268°
2026-04-25 16:25 -0.04354 -78.49359 13820 ft 241 kts 268°
2026-04-25 16:25 -0.04358 -78.49908 13911 ft 245 kts 269°
2026-04-25 16:25 -0.04370 -78.52877 14367 ft 264 kts 269°
2026-04-25 16:25 -0.04401 -78.54756 14531 ft 280 kts 268°
2026-04-25 16:26 -0.04470 -78.56765 14660 ft 300 kts 266°
2026-04-25 16:26 -0.04565 -78.58924 14774 ft 321 kts 267°
2026-04-25 16:26 -0.04666 -78.61187 14875 ft 340 kts 267°
2026-04-25 16:26 -0.04765 -78.63616 14968 ft 358 kts 267°
2026-04-25 16:27 -0.04861 -78.66161 15060 ft 375 kts 267°
2026-04-25 16:27 -0.04956 -78.68831 15379 ft 383 kts 267°
2026-04-25 16:27 -0.05046 -78.71498 15821 ft 386 kts 268°
2026-04-25 16:27 -0.05133 -78.74156 16297 ft 389 kts 268°
2026-04-25 16:28 -0.05221 -78.76868 16783 ft 392 kts 268°
2026-04-25 16:28 -0.05310 -78.79604 17272 ft 395 kts 268°
2026-04-25 16:28 -0.05402 -78.82355 17749 ft 398 kts 268°
2026-04-25 16:28 -0.05498 -78.85128 18227 ft 401 kts 268°
2026-04-25 16:29 -0.05595 -78.87923 18658 ft 404 kts 268°
2026-04-25 16:29 -0.05693 -78.90738 19054 ft 407 kts 268°
2026-04-25 16:29 -0.05791 -78.93575 19451 ft 410 kts 269°
2026-04-25 16:29 -0.05892 -78.96435 19836 ft 414 kts 269°
2026-04-25 16:30 -0.05960 -78.98383 20100 ft 416 kts 269°
2026-04-25 16:30 -0.06091 -79.02224 20610 ft 420 kts 269°
2026-04-25 16:30 -0.06189 -79.05152 20979 ft 423 kts 269°
2026-04-25 16:30 -0.06289 -79.08100 21347 ft 426 kts 269°
2026-04-25 16:31 -0.06390 -79.11069 21714 ft 429 kts 269°
2026-04-25 16:31 -0.06492 -79.14068 22079 ft 432 kts 269°
2026-04-25 16:31 -0.06595 -79.17073 22434 ft 434 kts 269°
2026-04-25 16:31 -0.06699 -79.20106 22780 ft 437 kts 269°
2026-04-25 16:32 -0.06807 -79.23147 23123 ft 439 kts 269°
2026-04-25 16:32 -0.06914 -79.26169 23462 ft 442 kts 269°
2026-04-25 16:32 -0.07022 -79.29248 23758 ft 444 kts 269°
2026-04-25 16:32 -0.07127 -79.32346 24015 ft 447 kts 269°
2026-04-25 16:33 -0.07232 -79.35459 24268 ft 450 kts 269°
2026-04-25 16:33 -0.07336 -79.38592 24524 ft 452 kts 269°
2026-04-25 16:33 -0.07439 -79.41734 24764 ft 454 kts 269°
2026-04-25 16:33 -0.07544 -79.44900 25010 ft 457 kts 269°
2026-04-25 16:34 -0.07652 -79.48082 25254 ft 459 kts 269°
2026-04-25 16:34 -0.07764 -79.51278 25489 ft 461 kts 269°
2026-04-25 16:34 -0.07877 -79.54495 25729 ft 464 kts 269°
2026-04-25 16:34 -0.07990 -79.57730 25966 ft 466 kts 269°
2026-04-25 16:35 -0.08102 -79.60971 26201 ft 468 kts 269°
2026-04-25 16:35 -0.08214 -79.64231 26435 ft 471 kts 268°
2026-04-25 16:35 -0.08326 -79.67503 26663 ft 473 kts 268°
2026-04-25 16:35 -0.08437 -79.70760 26888 ft 475 kts 268°
2026-04-25 16:36 -0.08550 -79.74113 27115 ft 477 kts 268°
2026-04-25 16:36 -0.08587 -79.75186 27187 ft 478 kts 268°
2026-04-25 16:36 -0.08775 -79.80729 27523 ft 482 kts 268°
2026-04-25 16:36 -0.08889 -79.84091 27733 ft 484 kts 268°
2026-04-25 16:37 -0.09005 -79.87458 27939 ft 486 kts 268°
2026-04-25 16:37 -0.09122 -79.90837 28137 ft 488 kts 268°
2026-04-25 16:37 -0.09237 -79.94228 28319 ft 490 kts 268°
2026-04-25 16:37 -0.09354 -79.97648 28507 ft 492 kts 268°
2026-04-25 16:38 -0.09472 -80.01071 28677 ft 494 kts 268°
2026-04-25 16:38 -0.09551 -80.03350 28795 ft 495 kts 268°
2026-04-25 16:38 -0.09671 -80.06801 28967 ft 497 kts 268°
2026-04-25 16:38 -0.09832 -80.11429 29188 ft 500 kts 268°
2026-04-25 16:39 -0.09949 -80.14860 29343 ft 501 kts 268°
2026-04-25 16:39 -0.10068 -80.18339 29567 ft 501 kts 268°
2026-04-25 16:39 -0.10188 -80.21822 29794 ft 501 kts 268°
2026-04-25 16:39 -0.10308 -80.25300 30038 ft 501 kts 268°
2026-04-25 16:40 -0.10388 -80.27655 30181 ft 501 kts 268°
2026-04-25 16:40 -0.10544 -80.32262 30450 ft 501 kts 268°
2026-04-25 16:40 -0.10622 -80.34568 30591 ft 501 kts 268°
2026-04-25 16:40 -0.10742 -80.38042 30811 ft 500 kts 268°
2026-04-25 16:41 -0.10905 -80.42687 31103 ft 500 kts 268°
2026-04-25 16:41 -0.11219 -80.51905 31701 ft 498 kts 268°
2026-04-25 16:42 -0.11336 -80.55372 31925 ft 498 kts 268°
2026-04-25 16:42 -0.11455 -80.58837 32151 ft 497 kts 268°
2026-04-25 16:42 -0.11573 -80.62286 32370 ft 497 kts 268°
2026-04-25 16:42 -0.11688 -80.65737 32596 ft 496 kts 268°
2026-04-25 16:43 -0.11804 -80.69182 32832 ft 496 kts 268°
2026-04-25 16:43 -0.11919 -80.72619 33068 ft 495 kts 268°
2026-04-25 16:43 -0.12035 -80.76059 33299 ft 495 kts 268°
2026-04-25 16:43 -0.12153 -80.79490 33538 ft 494 kts 268°
2026-04-25 16:44 -0.12275 -80.82920 33778 ft 493 kts 268°
2026-04-25 16:44 -0.12398 -80.86297 34005 ft 493 kts 268°
2026-04-25 16:44 -0.12520 -80.89714 34212 ft 492 kts 268°
2026-04-25 16:44 -0.12634 -80.93137 34429 ft 491 kts 268°
2026-04-25 16:45 -0.12744 -80.96549 34649 ft 490 kts 268°
2026-04-25 16:45 -0.12855 -80.99952 34863 ft 489 kts 268°
2026-04-25 16:45 -0.12969 -81.03346 35073 ft 488 kts 268°
2026-04-25 16:45 -0.13084 -81.06733 35280 ft 487 kts 268°
2026-04-25 16:46 -0.13201 -81.10110 35480 ft 486 kts 268°
2026-04-25 16:46 -0.13318 -81.13482 35669 ft 485 kts 268°
2026-04-25 16:46 -0.13432 -81.16840 35856 ft 484 kts 268°
2026-04-25 16:46 -0.13508 -81.19065 35930 ft 484 kts 268°
2026-04-25 16:47 -0.13785 -81.26925 35966 ft 484 kts 268°
2026-04-25 16:47 -0.14017 -81.33659 35970 ft 484 kts 268°
2026-04-25 16:48 -0.14245 -81.40391 35965 ft 484 kts 268°
2026-04-25 16:48 -0.14470 -81.47079 35963 ft 484 kts 268°
2026-04-25 16:49 -0.14707 -81.53802 35968 ft 484 kts 268°
2026-04-25 16:49 -0.14960 -81.60535 35970 ft 485 kts 268°
2026-04-25 16:50 -0.15210 -81.67265 35974 ft 485 kts 268°
2026-04-25 16:50 -0.15453 -81.74002 35981 ft 485 kts 268°
2026-04-25 16:51 -0.15696 -81.80740 35984 ft 486 kts 268°
2026-04-25 16:51 -0.15899 -81.86359 35984 ft 486 kts 268°
2026-04-25 16:52 -0.16181 -81.94215 35986 ft 486 kts 268°
2026-04-25 16:52 -0.16428 -82.00960 35988 ft 486 kts 268°
2026-04-25 16:53 -0.16787 -82.11079 35985 ft 486 kts 268°
2026-04-25 16:54 -0.17026 -82.17781 35985 ft 486 kts 268°
2026-04-25 16:54 -0.17276 -82.24528 35985 ft 486 kts 268°
2026-04-25 16:55 -0.17527 -82.31283 35984 ft 486 kts 268°
2026-04-25 16:55 -0.17767 -82.38035 35985 ft 486 kts 268°
2026-04-25 16:56 -0.18011 -82.44806 35986 ft 487 kts 268°
2026-04-25 16:56 -0.18258 -82.51569 35987 ft 487 kts 268°
2026-04-25 16:57 -0.18503 -82.58334 35991 ft 487 kts 268°
2026-04-25 16:57 -0.18741 -82.65058 35991 ft 488 kts 268°
2026-04-25 16:58 -0.18987 -82.71833 35993 ft 488 kts 268°
2026-04-25 16:58 -0.19224 -82.78615 35991 ft 488 kts 268°
2026-04-25 16:59 -0.19467 -82.85399 35991 ft 488 kts 268°
2026-04-25 16:59 -0.19716 -82.92181 35992 ft 488 kts 268°
2026-04-25 17:00 -0.19965 -82.98964 35991 ft 488 kts 268°
2026-04-25 17:00 -0.20207 -83.05734 36049 ft 487 kts 268°
2026-04-25 17:01 -0.20442 -83.12453 36208 ft 486 kts 268°
2026-04-25 17:01 -0.20617 -83.17539 36346 ft 485 kts 268°
2026-04-25 17:02 -0.20868 -83.24124 36229 ft 484 kts 268°
2026-04-25 17:02 -0.21118 -83.30847 35944 ft 485 kts 268°
2026-04-25 17:03 -0.21351 -83.37579 35970 ft 485 kts 268°
2026-04-25 17:03 -0.21585 -83.44316 35972 ft 485 kts 268°
2026-04-25 17:04 -0.21827 -83.51057 35971 ft 485 kts 268°
2026-04-25 17:04 -0.22076 -83.57792 35975 ft 485 kts 268°
2026-04-25 17:05 -0.22324 -83.64520 35978 ft 485 kts 268°
2026-04-25 17:05 -0.22685 -83.74612 35980 ft 485 kts 268°
2026-04-25 17:06 -0.22927 -83.81340 35984 ft 484 kts 268°
2026-04-25 17:06 -0.23164 -83.88063 35988 ft 484 kts 268°
2026-04-25 17:07 -0.23405 -83.94788 35990 ft 484 kts 269°
2026-04-25 17:07 -0.23648 -84.01500 35990 ft 483 kts 268°
2026-04-25 17:08 -0.23890 -84.08210 35989 ft 483 kts 269°
2026-04-25 17:08 -0.24135 -84.14912 35989 ft 483 kts 269°
2026-04-25 17:09 -0.24372 -84.21612 35987 ft 482 kts 269°
2026-04-25 17:09 -0.24608 -84.28306 35988 ft 482 kts 269°
2026-04-25 17:10 -0.24853 -84.35002 35990 ft 482 kts 269°
2026-04-25 17:10 -0.25097 -84.41695 35990 ft 482 kts 269°
2026-04-25 17:11 -0.25338 -84.48381 35993 ft 481 kts 269°
2026-04-25 17:11 -0.25575 -84.55066 35992 ft 481 kts 269°
2026-04-25 17:12 -0.25815 -84.61740 35987 ft 480 kts 269°
2026-04-25 17:12 -0.26049 -84.68408 35986 ft 480 kts 269°
2026-04-25 17:13 -0.26205 -84.72862 35986 ft 479 kts 269°
2026-04-25 17:13 -0.26525 -84.81722 35985 ft 479 kts 269°
2026-04-25 17:14 -0.26768 -84.88380 35984 ft 479 kts 269°
2026-04-25 17:14 -0.27012 -84.95028 35982 ft 479 kts 269°
2026-04-25 17:15 -0.27255 -85.01670 35983 ft 478 kts 269°
2026-04-25 17:15 -0.27486 -85.08305 35984 ft 478 kts 269°
2026-04-25 17:16 -0.27714 -85.14934 35978 ft 477 kts 269°
2026-04-25 17:16 -0.27956 -85.21556 35978 ft 477 kts 269°
2026-04-25 17:17 -0.28205 -85.28184 35975 ft 477 kts 269°
2026-04-25 17:17 -0.28448 -85.34799 35973 ft 477 kts 269°
2026-04-25 17:18 -0.28685 -85.41417 35979 ft 476 kts 269°
2026-04-25 17:18 -0.28920 -85.48031 35981 ft 476 kts 269°
2026-04-25 17:19 -0.29155 -85.54646 35980 ft 476 kts 269°
2026-04-25 17:19 -0.29403 -85.61252 35980 ft 476 kts 269°
2026-04-25 17:20 -0.29645 -85.67854 35980 ft 475 kts 269°
2026-04-25 17:20 -0.29872 -85.74447 35981 ft 475 kts 269°
2026-04-25 17:21 -0.30105 -85.81039 35979 ft 475 kts 269°
2026-04-25 17:21 -0.30348 -85.87635 35980 ft 474 kts 269°
2026-04-25 17:22 -0.30506 -85.92038 35982 ft 474 kts 269°
2026-04-25 17:22 -0.30785 -85.99678 35979 ft 473 kts 269°
2026-04-25 17:23 -0.31020 -86.06247 35976 ft 473 kts 269°
2026-04-25 17:23 -0.31249 -86.12806 35974 ft 472 kts 269°
2026-04-25 17:24 -0.31484 -86.19355 35977 ft 470 kts 270°
2026-04-25 17:24 -0.31726 -86.25799 35958 ft 456 kts 270°
2026-04-25 17:25 -0.31956 -86.32064 35955 ft 454 kts 270°
2026-04-25 17:25 -0.32182 -86.38402 35956 ft 453 kts 270°
2026-04-25 17:26 -0.32401 -86.44700 35955 ft 453 kts 270°
2026-04-25 17:26 -0.32629 -86.50990 35958 ft 453 kts 270°
2026-04-25 17:27 -0.32860 -86.57250 35950 ft 453 kts 270°
2026-04-25 17:27 -0.33048 -86.62520 35951 ft 453 kts 270°
2026-04-25 17:28 -0.33308 -86.69843 35958 ft 454 kts 270°
2026-04-25 17:28 -0.33534 -86.76142 35956 ft 454 kts 270°
2026-04-25 17:29 -0.33760 -86.82446 35956 ft 454 kts 270°
2026-04-25 17:29 -0.33984 -86.88761 35958 ft 454 kts 270°
2026-04-25 17:30 -0.34211 -86.95028 35962 ft 454 kts 270°
2026-04-25 17:30 -0.34447 -87.01346 35966 ft 455 kts 270°
2026-04-25 17:31 -0.34676 -87.07668 35971 ft 455 kts 270°
2026-04-25 17:31 -0.34898 -87.13979 35972 ft 455 kts 271°
2026-04-25 17:32 -0.35118 -87.20299 35966 ft 455 kts 271°
2026-04-25 17:32 -0.35349 -87.26615 35967 ft 455 kts 270°
2026-04-25 17:33 -0.35582 -87.32900 35968 ft 455 kts 271°
2026-04-25 17:33 -0.35808 -87.39262 35967 ft 456 kts 270°
2026-04-25 17:34 -0.36032 -87.45545 35966 ft 456 kts 270°
2026-04-25 17:34 -0.36263 -87.51873 35964 ft 455 kts 270°
2026-04-25 17:35 -0.36487 -87.58196 35962 ft 455 kts 271°
2026-04-25 17:35 -0.36707 -87.64514 35962 ft 455 kts 270°
2026-04-25 17:36 -0.36933 -87.70841 35963 ft 456 kts 270°
2026-04-25 17:36 -0.37167 -87.77169 35965 ft 456 kts 270°
2026-04-25 17:37 -0.37401 -87.83499 35966 ft 455 kts 270°
2026-04-25 17:37 -0.37622 -87.89827 35965 ft 455 kts 270°
2026-04-25 17:38 -0.37817 -87.95076 35964 ft 455 kts 270°
2026-04-25 17:38 -0.38076 -88.02458 35962 ft 454 kts 270°
2026-04-25 17:39 -0.38298 -88.08767 35962 ft 454 kts 270°
2026-04-25 17:39 -0.38528 -88.15042 35961 ft 455 kts 270°
2026-04-25 17:40 -0.38757 -88.21350 35957 ft 454 kts 270°
2026-04-25 17:40 -0.38989 -88.27664 35956 ft 454 kts 270°
2026-04-25 17:41 -0.39219 -88.33981 35959 ft 454 kts 270°
2026-04-25 17:41 -0.39440 -88.40302 35956 ft 454 kts 270°
2026-04-25 17:42 -0.39662 -88.46620 35950 ft 454 kts 270°
2026-04-25 17:42 -0.39889 -88.52932 35950 ft 455 kts 270°
2026-04-25 17:43 -0.40116 -88.59250 35952 ft 455 kts 270°
2026-04-25 17:43 -0.40346 -88.65542 35951 ft 456 kts 270°
2026-04-25 17:44 -0.40575 -88.71881 35954 ft 456 kts 270°
2026-04-25 17:44 -0.40808 -88.78218 35951 ft 457 kts 270°
2026-04-25 17:45 -0.40962 -88.82462 35771 ft 457 kts 270°
2026-04-25 17:45 -0.41147 -88.87785 34278 ft 466 kts 270°
2026-04-25 17:45 -0.41255 -88.91003 33284 ft 471 kts 270°
2026-04-25 17:46 -0.41369 -88.94290 32273 ft 476 kts 269°
2026-04-25 17:46 -0.41489 -88.97621 31251 ft 481 kts 269°
2026-04-25 17:46 -0.41613 -89.00972 30208 ft 486 kts 269°
2026-04-25 17:46 -0.41737 -89.04370 29015 ft 492 kts 269°
2026-04-25 17:47 -0.41859 -89.07751 28500 ft 482 kts 269°
2026-04-25 17:47 -0.41980 -89.11082 27750 ft 478 kts 269°
2026-04-25 17:47 -0.42101 -89.14383 27049 ft 473 kts 269°
2026-04-25 17:47 -0.42219 -89.17650 26355 ft 469 kts 269°
2026-04-25 17:48 -0.42453 -89.24118 24991 ft 463 kts 268°
2026-04-25 17:48 -0.42568 -89.27324 24302 ft 460 kts 268°
2026-04-25 17:48 -0.42683 -89.30515 23645 ft 458 kts 268°
2026-04-25 17:49 -0.42799 -89.33687 22918 ft 455 kts 268°
2026-04-25 17:49 -0.42913 -89.36833 22296 ft 450 kts 268°
2026-04-25 17:49 -0.43024 -89.39938 21706 ft 445 kts 268°
2026-04-25 17:49 -0.43131 -89.42976 21157 ft 440 kts 268°
2026-04-25 17:50 -0.43238 -89.46022 20605 ft 438 kts 268°
2026-04-25 17:50 -0.43345 -89.49053 20082 ft 436 kts 268°
2026-04-25 17:50 -0.43453 -89.52064 19563 ft 432 kts 268°
2026-04-25 17:50 -0.43561 -89.55051 19059 ft 428 kts 267°
2026-04-25 17:51 -0.43668 -89.58013 18548 ft 424 kts 267°
2026-04-25 17:51 -0.43774 -89.60954 17993 ft 421 kts 267°
2026-04-25 17:51 -0.43880 -89.63868 17448 ft 418 kts 267°
2026-04-25 17:51 -0.43985 -89.66759 16915 ft 414 kts 267°
2026-04-25 17:52 -0.44088 -89.69617 16373 ft 410 kts 267°
2026-04-25 17:52 -0.44121 -89.70542 16188 ft 410 kts 267°
2026-04-25 17:52 -0.44294 -89.75281 15272 ft 405 kts 267°
2026-04-25 17:52 -0.44395 -89.78090 14734 ft 403 kts 267°
2026-04-25 17:53 -0.44493 -89.80879 14164 ft 401 kts 267°
2026-04-25 17:53 -0.44591 -89.83655 13687 ft 397 kts 267°
2026-04-25 17:53 -0.44691 -89.86406 13083 ft 394 kts 267°
2026-04-25 17:53 -0.44789 -89.89101 12475 ft 392 kts 267°
2026-04-25 17:54 -0.44888 -89.91798 11904 ft 387 kts 267°
2026-04-25 17:54 -0.44985 -89.94470 11357 ft 383 kts 267°
2026-04-25 17:54 -0.45079 -89.97123 10803 ft 379 kts 267°
2026-04-25 17:54 -0.45171 -89.99715 10604 ft 365 kts 267°
2026-04-25 17:55 -0.45257 -90.02198 10487 ft 350 kts 267°
2026-04-25 17:55 -0.45340 -90.04553 10371 ft 326 kts 267°
2026-04-25 17:55 -0.45417 -90.06744 10181 ft 307 kts 267°
2026-04-25 17:55 -0.45493 -90.08848 9775 ft 301 kts 267°
2026-04-25 17:56 -0.45570 -90.10918 9597 ft 297 kts 267°
2026-04-25 17:56 -0.45647 -90.12980 9291 ft 298 kts 267°
2026-04-25 17:56 -0.45723 -90.15054 8845 ft 298 kts 267°
2026-04-25 17:56 -0.45799 -90.17117 8409 ft 298 kts 267°
2026-04-25 17:57 -0.45873 -90.19168 8109 ft 293 kts 267°
2026-04-25 17:57 -0.45945 -90.21173 7741 ft 287 kts 267°
2026-04-25 17:57 -0.46017 -90.23148 7066 ft 288 kts 267°
2026-04-25 17:57 -0.46041 -90.23829 6849 ft 288 kts 267°
2026-04-25 17:58 -0.45496 -90.27047 5960 ft 283 kts 292°
2026-04-25 17:58 -0.44628 -90.28817 5490 ft 284 kts 296°
2026-04-25 17:58 -0.43742 -90.30589 5020 ft 285 kts 296°
2026-04-25 17:58 -0.42867 -90.32355 4643 ft 282 kts 295°
2026-04-25 17:59 -0.42001 -90.34105 4385 ft 272 kts 295°
2026-04-25 17:59 -0.41197 -90.35727 4306 ft 248 kts 295°
2026-04-25 17:59 -0.40465 -90.37205 4217 ft 227 kts 295°
2026-04-25 17:59 -0.39792 -90.38564 4125 ft 209 kts 295°
2026-04-25 18:00 -0.39378 -90.39401 4094 ft 198 kts 295°
2026-04-25 18:00 -0.38587 -90.40999 3923 ft 191 kts 295°
2026-04-25 18:00 -0.37885 -90.42141 3806 ft 191 kts 318°
2026-04-25 18:00 -0.36765 -90.42803 3724 ft 191 kts 341°
2026-04-25 18:01 -0.35468 -90.43055 3628 ft 191 kts 359°
2026-04-25 18:01 -0.34150 -90.42909 3525 ft 191 kts 18°
2026-04-25 18:01 -0.32959 -90.42376 3413 ft 186 kts 36°
2026-04-25 18:01 -0.32010 -90.41523 3317 ft 183 kts 54°
2026-04-25 18:02 -0.31381 -90.40437 3220 ft 180 kts 72°
2026-04-25 18:02 -0.31123 -90.39227 3127 ft 177 kts 90°
2026-04-25 18:02 -0.31249 -90.38011 3036 ft 176 kts 107°
2026-04-25 18:02 -0.31730 -90.36898 2943 ft 175 kts 123°
2026-04-25 18:03 -0.32537 -90.36008 2875 ft 173 kts 140°
2026-04-25 18:03 -0.33483 -90.35260 2723 ft 173 kts 143°
2026-04-25 18:03 -0.34446 -90.34541 2528 ft 173 kts 143°
2026-04-25 18:03 -0.35402 -90.33840 2313 ft 173 kts 144°
2026-04-25 18:04 -0.36386 -90.33123 2094 ft 173 kts 144°
2026-04-25 18:04 -0.37359 -90.32416 1863 ft 173 kts 144°
2026-04-25 18:04 -0.38331 -90.31710 1654 ft 171 kts 144°
2026-04-25 18:04 -0.39248 -90.31043 1431 ft 158 kts 144°
2026-04-25 18:05 -0.40098 -90.30425 1244 ft 146 kts 144°
2026-04-25 18:05 -0.40908 -90.29838 1054 ft 142 kts 144°
2026-04-25 18:05 -0.41699 -90.29262 869 ft 140 kts 144°
2026-04-25 18:05 -0.42482 -90.28688 657 ft 140 kts 143°
2026-04-25 18:06 -0.43263 -90.28114 498 ft 140 kts 142°
2026-04-25 18:06 -0.44046 -90.27546 305 ft 138 kts 142°
2026-04-25 18:06 -0.44814 -90.26997 169 ft 127 kts 142°
2026-04-25 18:06 -0.45419 -90.26552 192 ft 91 kts 144°
2026-04-25 18:07 -0.45874 -90.26229 211 ft 66 kts 144°
2026-04-25 18:07 -0.46142 -90.26035 210 ft 33 kts 142°
2026-04-25 18:07 -0.46192 -90.25939 215 ft 8 kts 73°
2026-04-25 18:07 -0.46210 -90.25933 218 ft 8 kts 223°
2026-04-25 18:08 -0.46169 -90.26017 215 ft 14 kts 339°
2026-04-25 18:08 -0.46058 -90.26097 211 ft 26 kts 328°
2026-04-25 18:08 -0.45904 -90.26206 206 ft 27 kts 325°
2026-04-25 18:08 -0.45802 -90.26280 203 ft 27 kts 323°
2026-04-25 18:09 -0.45641 -90.26396 199 ft 30 kts 327°
2026-04-25 18:09 -0.45459 -90.26505 200 ft 30 kts 320°
2026-04-25 18:09 -0.45299 -90.26645 180 ft 31 kts 322°
2026-04-25 18:09 -0.45181 -90.26729 179 ft 32 kts 325°
2026-04-25 18:10 -0.44942 -90.26902 174 ft 31 kts 324°
2026-04-25 18:10 -0.44803 -90.27000 167 ft 19 kts 325°
2026-04-25 18:10 -0.44694 -90.27076 163 ft 15 kts 327°
2026-04-25 18:10 -0.44643 -90.27041 162 ft 10 kts 54°
2026-04-25 18:11 -0.44634 -90.27027 162 ft 0 kts 56°
2026-04-25 18:11 -0.44629 -90.27019 162 ft 0 kts 65°
2026-04-25 18:11 -0.44636 -90.27001 162 ft 8 kts 123°
2026-04-25 18:11 -0.44637 -90.26962 163 ft 4 kts 50°
2026-04-25 18:12 -0.44629 -90.26953 163 ft 1 kts 53°
2026-04-25 18:12 -0.44628 -90.26951 163 ft 0 kts 53°